PDT,Max TemperatureF,Mean TemperatureF,Min TemperatureF,Max Dew PointF,MeanDew PointF,Min DewpointF,Max Humidity, Mean Humidity, Min Humidity, Max Sea Level PressureIn, Mean Sea Level PressureIn, Min Sea Level PressureIn, Max VisibilityMiles, Mean VisibilityMiles, Min VisibilityMiles, Max Wind SpeedMPH, Mean Wind SpeedMPH, Max Gust SpeedMPH,PrecipitationIn, CloudCover, Events, WindDirDegrees
2012-10-1,73,60,48,56,49,42,90,66,42,30.35,30.21,30.10,10,10,8,12,2,,0.00,2,,20
2012-10-2,61,56,51,50,42,33,83,61,36,30.27,30.20,30.16,10,10,9,15,5,24,0.00,6,,4
2012-10-3,63,56,51,41,35,30,66,47,31,30.37,30.31,30.26,10,10,10,21,13,29,0.00,0,,11
2012-10-4,63,56,51,41,37,30,66,50,31,30.28,30.25,30.23,10,10,9,20,15,25,0.00,0,,7
2012-10-5,69,59,50,42,35,27,74,45,21,30.27,30.24,30.20,10,10,9,16,13,28,0.00,0,,8
2012-10-6,72,60,48,40,33,22,74,39,15,30.23,30.18,30.11,10,9,8,14,9,17,0.00,0,,8
2012-10-7,71,58,46,44,40,36,86,52,29,30.11,30.02,29.93,10,10,7,7,3,,0.00,0,,18
2012-10-8,68,57,46,47,43,39,89,67,37,30.06,29.97,29.94,10,9,7,8,2,,0.00,0,,231
2012-10-9,60,52,48,47,45,45,93,80,62,30.14,30.09,30.04,8,7,5,6,4,,0.00,5,,163
2012-10-10,51,47,44,48,46,43,100,93,86,30.05,30.02,30.00,3,2,0,5,0,,0.00,6,Fog,160
2012-10-11,57,52,48,48,46,45,94,82,67,30.01,29.92,29.81,6,4,3,7,2,,0.00,5,,316
2012-10-12,55,52,50,52,48,45,94,84,74,30.01,29.91,29.84,10,7,2,13,8,21,0.02,8,Rain,199
2012-10-13,61,57,54,55,53,49,94,87,77,30.15,30.12,30.03,10,8,2,16,10,23,0.22,8,Rain,197
2012-10-14,63,60,57,57,55,53,97,85,72,30.12,29.95,29.88,10,6,2,20,9,29,0.79,8,Rain,194
2012-10-15,64,58,53,59,55,49,96,89,74,29.97,29.77,29.58,10,7,0,21,7,28,0.54,7,Fog-Rain,212
2012-10-16,57,52,48,52,45,41,88,72,56,30.27,29.99,29.62,10,10,8,20,14,37,0.00,1,,211
2012-10-17,57,51,45,44,42,41,90,77,57,30.33,30.28,30.22,10,9,7,6,2,,0.01,5,,187
2012-10-18,60,51,43,49,46,40,94,83,60,30.22,29.96,29.82,10,6,1,9,2,,0.83,5,Rain,225
2012-10-19,57,52,48,54,51,44,100,87,69,29.84,29.81,29.76,10,7,2,18,12,25,0.21,8,Rain,197
2012-10-20,52,46,42,45,38,36,87,74,56,29.91,29.87,29.81,10,10,5,16,11,23,0.02,4,Rain,197
2012-10-21,52,46,39,41,39,36,93,83,59,29.89,29.85,29.77,10,8,0,17,6,23,0.29,5,Fog-Rain,194
2012-10-22,45,42,41,41,39,38,89,87,81,29.76,29.64,29.59,10,7,2,12,3,,0.34,7,Rain,344
2012-10-23,52,46,42,40,38,36,86,74,63,29.87,29.80,29.67,10,10,8,14,9,20,0.02,7,Rain,189
2012-10-24,52,47,42,43,41,39,93,84,66,30.17,29.99,29.86,10,8,3,8,3,,0.29,7,Rain,265
2012-10-25,52,46,42,44,42,39,93,86,71,30.43,30.35,30.20,10,7,1,5,0,,0.00,6,Rain,289
2012-10-26,52,48,44,48,44,39,94,89,76,30.30,30.13,30.05,10,5,1,14,3,,0.20,8,Rain,165
2012-10-27,57,52,48,55,49,45,100,90,77,30.06,29.87,29.77,9,3,0,17,9,25,0.83,8,Fog-Rain,171
2012-10-28,57,54,50,55,51,48,96,90,82,29.95,29.89,29.77,10,7,1,15,7,25,0.35,7,Rain,217
2012-10-29,59,54,50,56,52,48,96,90,75,30.03,29.86,29.74,10,6,0,21,6,31,0.47,8,Fog-Rain,189
2012-10-30,59,56,53,56,53,51,100,94,90,29.98,29.86,29.75,10,4,0,7,2,,1.05,8,Fog-Rain,161
2012-10-31,59,56,54,56,54,48,100,91,77,29.76,29.70,29.63,10,4,0,15,4,20,0.77,8,Fog-Rain,173